Location: Glendale
(37.4556°N, 88.6714°W)
Time: 05:47:19
(UTC+00:00)

Lacrosse 5 - Pass Details

Date: 08 December 2019
Orbit: 717 x 722 km, 57.0° (Epoch: 10 January)

Event Time Altitude Azimuth Distance (km) Brightness Sun altitude
Exits shadow 11:39:52 17° 254° (WSW) 1,744 3.4 -14.8°
Maximum altitude 11:40:43 18° 241° (WSW) 1,707 3.4 -14.7°
Drops below altitude 10° 11:44:07 10° 199° (SSW) 2,192 4.4 -14.0°
Sets 11:47:08 0° 181° (S) 3,109 5.4 -13.5°
